Regional Weather Roundup
Issued by NWS New Orleans/Baton Rouge, LA

Home | Current Version | Previous Version | Graphics & Text | Print | Product List | Glossary On
Versions: 1 2 3 4 5 6 7 8 9 10 11 12 13 14 15 16 17 18 19 20 21 22 23 24 25 26 27 28 29 30 31 32 33 34 35 36 37 38 39 40 41 42 43 44 45 46 47 48 49 50
918
ASUS44 KLIX 161110
RWRLIX
NEW ORLEANS REGIONAL WEATHER ROUNDUP
NATIONAL WEATHER SERVICE NEW ORLEANS LA
600 AM CDT WED APR 16 2014

NOTE: "FAIR" INDICATES FEW OR NO CLOUDS BELOW 12,000 FEET WITH NO
      SIGNIFICANT WEATHER AND/OR OBSTRUCTIONS TO VISIBILITY.
      SKY/WX - SKY CONDITION AND SIGNIFICANT WEATHER.
      TMP - AIR TEMPERATURE.     DP    - DEWPOINT TEMPERATURE.
      RH  - RELATIVE HUMIDITY.   PRES  - PRESSURE.
      HI  - HEAT INDEX.          WCI   - WIND CHILL INDEX.

*  THESE STATIONS ARE NOT NWS OR FAA STATIONS AND ARE NOT UNDER
   NWS QUALITY CONTROL.

LAZ038-040-048-061>063-065>067-069-161200-
SOUTHEAST LOUISIANA

CITY           SKY/WX    TMP DP  RH WIND       PRES   REMARKS
N.O. AUDUBON     N/A     47  33  58 MISG        N/A
N.O. INTL ARPT CLEAR     48  34  58 NE8       30.19R
N.O. LAKEFRONT CLEAR     49  35  58 E18       30.20R
N.O. DOWNTOWN*   N/A     48  30  49 NE3       30.19S
SLIDELL        CLEAR     40  33  76 NE5       30.19R
BATON ROUGE    CLEAR     38  32  79 NE5       30.20R WCI  34
BOOTHVILLE     CLEAR     53  38  56 NE12      30.18R
BELLE CHASSE   CLEAR     45  33  63 NE6       30.19R
BOGALUSA*        N/A     37  33  88 NW3       30.21R
GALLIANO*      SUNNY     45  39  81 NW7       30.19R
NEW ROADS*       N/A     40  31  71 NE6       30.21R
GONZALES*        N/A     39  36  86 NE3       30.20S
HAMMOND*       CLEAR     37  34  87 CALM      30.22R
HOUMA*           N/A     39  37  90 CALM      30.19R FOG
PORT FOURCHON* CLOUDY    52  41  66 NE13      30.19R

$$

MSZ070-080>082-161200-
SOUTHERN MISSISSIPPI

CITY           SKY/WX    TMP DP  RH WIND       PRES   REMARKS
MCCOMB         CLEAR     36  31  82 CALM      30.20R
GULFPORT       CLEAR     41  33  73 N5        30.19R
BILOXI         CLEAR     40  34  80 N7        30.19R
PASCAGOULA     CLEAR     37  34  89 CALM      30.20R

$$

COASTAL OBSERVATIONS
LAKE AND NEARSHORE STATIONS

STATION/POSITION TIME  TEMP    WIND        PRES    WAVE
                       AIR SEA DIR/SP/G            HT/PER
                 (UTC) (F)     (DEG/KT/KT) (MB)    (FT/S)
PASCAGOULA       1100   41      10/  6/  9 1021.6
WAVELAND YACHT   1100   43 62   30/ 11/ 15 1021.4
GRAND ISLE       1100   53 64   60/  8/ 13 1022.0
SOUTHWEST PASS   1100   57 58   40/ 12/ 14 1021.4
NEW CANAL        1100   50 62   60/ 19/ 22 1022.3
SHELL BEACH      1100   51 58   40/ 17/ 21 1021.6

OFFSHORE STATIONS

STATION/POSITION TIME  TEMP    WIND        PRES    WAVE
                       AIR SEA DIR/SP/G            HT/PER
                 (UTC) (F)     (DEG/KT/KT) (MB)    (FT/S)
64 S DAUPHIN ISL 0958   55 68   60/ 17/ 23 1021.1

$$




USA.gov is the U.S. government's official web portal to all federal, state and local government web resources and services.